Hourly Weather Goias

Today, 18 January, Monday

Time Temperature Precipitation Wind Pressure Humidity
00:00 +21°C° 0 mm 0 mps 715 mmHg 91%
01:00 +21°C° 0 mm 0 mps 715 mmHg 91%
02:00 +21°C° 0 mm 0 mps 714 mmHg 92%
03:00 +21°C° 0 mm 0 mps 714 mmHg 90%
04:00 +21°C° 0 mm 0 mps 714 mmHg 90%
05:00 +23°C° 0 mm 1 mps 714 mmHg 90%
06:00 +23°C° 0 mm 1 mps 714 mmHg 90%
07:00 +23°C° 0 mm 1 mps 714 mmHg 88%
08:00 +24°C° 0 mm 1 mps 715 mmHg 87%
09:00 +25°C° 0 mm 1 mps 715 mmHg 85%
10:00 +26°C° 0.3 mm 2 mps 715 mmHg 82%
11:00 +28°C° 0.3 mm 2 mps 716 mmHg 78%
12:00 +29°C° 0.3 mm 2 mps 716 mmHg 75%
13:00 +29°C° 1.1 mm 2 mps 715 mmHg 77%
14:00 +29°C° 1.1 mm 2 mps 714 mmHg 79%
15:00 +28°C° 1.1 mm 1 mps 713 mmHg 81%
16:00 +28°C° 0.5 mm 1 mps 713 mmHg 82%
17:00 +28°C° 0.5 mm 1 mps 713 mmHg 84%
18:00 +26°C° 0.5 mm 0 mps 713 mmHg 85%
19:00 +24°C° 0.2 mm 0 mps 713 mmHg 87%
20:00 +23°C° 0.2 mm 0 mps 714 mmHg 89%
21:00 +22°C° 0.2 mm 0 mps 714 mmHg 91%
22:00 +22°C° 0.7 mm 0 mps 714 mmHg 92%
23:00 +21°C° 0.7 mm 0 mps 715 mmHg 92%

Tomorrow, 19 January, Tuesday

Time Temperature Precipitation Wind Pressure Humidity
00:00 +21°C° 0.7 mm 0 mps 715 mmHg 93%
01:00 +23°C° 0.3 mm 1 mps 715 mmHg 93%
02:00 +23°C° 0.3 mm 1 mps 714 mmHg 93%
03:00 +23°C° 0.3 mm 1 mps 714 mmHg 93%
04:00 +22°C° 0 mm 1 mps 714 mmHg 93%
05:00 +22°C° 0 mm 1 mps 714 mmHg 93%
06:00 +22°C° 0 mm 1 mps 714 mmHg 93%
07:00 +24°C° 0.2 mm 1 mps 715 mmHg 90%
08:00 +25°C° 0.2 mm 1 mps 715 mmHg 87%
09:00 +27°C° 0.2 mm 1 mps 716 mmHg 85%
10:00 +28°C° 0.4 mm 1 mps 715 mmHg 79%
11:00 +29°C° 0.4 mm 2 mps 715 mmHg 73%
12:00 +30°C° 0.4 mm 2 mps 715 mmHg 67%
13:00 +30°C° 0.7 mm 2 mps 715 mmHg 69%
14:00 +30°C° 0.7 mm 2 mps 714 mmHg 71%
15:00 +30°C° 0.7 mm 2 mps 713 mmHg 72%
16:00 +30°C° 0.3 mm 2 mps 713 mmHg 76%
17:00 +29°C° 0.3 mm 1 mps 713 mmHg 79%
18:00 +28°C° 0.3 mm 1 mps 713 mmHg 83%
19:00 +27°C° 0.1 mm 1 mps 713 mmHg 85%
20:00 +23°C° 0.1 mm 0 mps 714 mmHg 87%
21:00 +22°C° 0.1 mm 0 mps 714 mmHg 89%
22:00 +22°C° 0.2 mm 0 mps 715 mmHg 89%
23:00 +21°C° 0.2 mm 0 mps 715 mmHg 90%

Day after tomorrow, 20 January, Wednesday

Time Temperature Precipitation Wind Pressure Humidity
00:00 +21°C° 0.2 mm 0 mps 716 mmHg 90%
01:00 +23°C° 0.3 mm 1 mps 715 mmHg 91%
02:00 +23°C° 0.3 mm 1 mps 715 mmHg 91%
03:00 +22°C° 0.3 mm 1 mps 714 mmHg 92%
04:00 +22°C° 0.1 mm 1 mps 714 mmHg 93%
05:00 +22°C° 0.1 mm 1 mps 714 mmHg 93%
06:00 +22°C° 0.1 mm 1 mps 715 mmHg 93%
07:00 +24°C° 0.1 mm 1 mps 715 mmHg 89%
08:00 +26°C° 0.1 mm 1 mps 716 mmHg 84%
09:00 +27°C° 0.1 mm 2 mps 716 mmHg 79%
10:00 +29°C° 0.1 mm 2 mps 716 mmHg 72%
11:00 +30°C° 0.1 mm 3 mps 716 mmHg 65%
12:00 +31°C° 0.1 mm 3 mps 715 mmHg 58%
13:00 +33°C° 0 mm 3 mps 715 mmHg 58%
14:00 +33°C° 0 mm 3 mps 714 mmHg 57%
15:00 +32°C° 0 mm 2 mps 714 mmHg 56%
16:00 +31°C° 0 mm 2 mps 713 mmHg 62%
17:00 +30°C° 0 mm 1 mps 713 mmHg 67%
18:00 +30°C° 0 mm 1 mps 713 mmHg 72%
19:00 +28°C° 0 mm 1 mps 713 mmHg 74%
20:00 +26°C° 0 mm 1 mps 714 mmHg 77%
21:00 +25°C° 0 mm 1 mps 714 mmHg 79%
22:00 +24°C° 0.3 mm 1 mps 714 mmHg 81%
23:00 +24°C° 0.3 mm 1 mps 715 mmHg 82%

21 January, Thursday

Time Temperature Precipitation Wind Pressure Humidity
00:00 +24°C° 0.3 mm 1 mps 715 mmHg 84%
01:00 +23°C° 0.3 mm 2 mps 715 mmHg 86%
02:00 +23°C° 0.3 mm 2 mps 714 mmHg 88%
03:00 +21°C° 0.3 mm 2 mps 714 mmHg 89%
04:00 +21°C° 0 mm 2 mps 714 mmHg 89%
05:00 +22°C° 0 mm 1 mps 714 mmHg 88%
06:00 +22°C° 0 mm 1 mps 715 mmHg 88%
07:00 +24°C° 0 mm 2 mps 715 mmHg 84%
08:00 +25°C° 0 mm 2 mps 716 mmHg 81%
09:00 +27°C° 0 mm 2 mps 716 mmHg 77%
10:00 +28°C° 0.6 mm 2 mps 716 mmHg 76%
11:00 +28°C° 0.6 mm 3 mps 716 mmHg 74%
12:00 +29°C° 0.6 mm 3 mps 715 mmHg 73%
13:00 +30°C° 0.6 mm 3 mps 715 mmHg 71%
14:00 +30°C° 0.6 mm 2 mps 715 mmHg 69%
15:00 +30°C° 0.6 mm 1 mps 714 mmHg 67%
16:00 +30°C° 0.6 mm 1 mps 714 mmHg 72%
17:00 +29°C° 0.6 mm 1 mps 714 mmHg 76%
18:00 +28°C° 0.6 mm 1 mps 714 mmHg 80%
19:00 +27°C° 0 mm 1 mps 714 mmHg 82%
20:00 +25°C° 0 mm 1 mps 715 mmHg 84%
21:00 +24°C° 0 mm 1 mps 715 mmHg 86%
22:00 +23°C° 0.6 mm 1 mps 715 mmHg 88%
23:00 +23°C° 0.6 mm 1 mps 716 mmHg 90%

22 January, Friday

Time Temperature Precipitation Wind Pressure Humidity
00:00 +23°C° 0.6 mm 1 mps 716 mmHg 92%
01:00 +23°C° 0.4 mm 1 mps 716 mmHg 91%
02:00 +23°C° 0.4 mm 1 mps 715 mmHg 91%
03:00 +23°C° 0.4 mm 1 mps 715 mmHg 91%
04:00 +22°C° 0.1 mm 1 mps 715 mmHg 91%
05:00 +22°C° 0.1 mm 1 mps 715 mmHg 92%
06:00 +21°C° 0.1 mm 2 mps 716 mmHg 92%
07:00 +23°C° 0 mm 2 mps 716 mmHg 89%
08:00 +25°C° 0 mm 2 mps 717 mmHg 85%
09:00 +26°C° 0 mm 1 mps 717 mmHg 81%
10:00 +28°C° 0 mm 2 mps 717 mmHg 76%
11:00 +29°C° 0 mm 3 mps 717 mmHg 70%
12:00 +30°C° 0 mm 4 mps 717 mmHg 65%
13:00 +31°C° 0.3 mm 3 mps 716 mmHg 64%
14:00 +31°C° 0.3 mm 3 mps 716 mmHg 63%
15:00 +32°C° 0.3 mm 2 mps 715 mmHg 62%
16:00 +31°C° 0.4 mm 2 mps 715 mmHg 67%
17:00 +30°C° 0.4 mm 1 mps 715 mmHg 72%
18:00 +29°C° 0.4 mm 1 mps 715 mmHg 77%
19:00 +28°C° 0.1 mm 1 mps 715 mmHg 79%
20:00 +26°C° 0.1 mm 1 mps 715 mmHg 82%
21:00 +24°C° 0.1 mm 2 mps 716 mmHg 84%
22:00 +24°C° 0 mm 2 mps 716 mmHg 84%
23:00 +24°C° 0 mm 2 mps 716 mmHg 85%

23 January, Saturday

Time Temperature Precipitation Wind Pressure Humidity
00:00 +24°C° 0 mm 2 mps 716 mmHg 85%
01:00 +23°C° 0 mm 2 mps 716 mmHg 85%
02:00 +23°C° 0 mm 2 mps 716 mmHg 86%
03:00 +23°C° 0 mm 2 mps 715 mmHg 86%
04:00 +21°C° 0 mm 2 mps 715 mmHg 86%
05:00 +21°C° 0 mm 2 mps 716 mmHg 86%
06:00 +21°C° 0 mm 2 mps 716 mmHg 86%
07:00 +24°C° 0 mm 2 mps 716 mmHg 80%
08:00 +26°C° 0 mm 3 mps 717 mmHg 74%
09:00 +28°C° 0 mm 4 mps 718 mmHg 69%
10:00 +29°C° 0 mm 4 mps 717 mmHg 66%
11:00 +30°C° 0 mm 4 mps 717 mmHg 63%
12:00 +32°C° 0 mm 4 mps 717 mmHg 59%
13:00 +31°C° 0 mm 3 mps 716 mmHg 57%
14:00 +33°C° 0 mm 3 mps 716 mmHg 55%
15:00 +32°C° 0 mm 2 mps 715 mmHg 53%
16:00 +31°C° 0 mm 2 mps 715 mmHg 58%
17:00 +30°C° 0 mm 1 mps 714 mmHg 64%
18:00 +29°C° 0 mm 1 mps 714 mmHg 69%
19:00 +28°C° 0 mm 1 mps 714 mmHg 69%
20:00 +27°C° 0 mm 1 mps 715 mmHg 70%
21:00 +25°C° 0 mm 1 mps 715 mmHg 70%
22:00 +25°C° 0 mm 1 mps 715 mmHg 71%
23:00 +24°C° 0 mm 1 mps 715 mmHg 73%
Show more

We Need Your Consent

Meteoprog and our Service Providers may store and access personal data such as cookies, device identifiers or other similar technologies on your device and process such data to personalise content and ads, as well as provide social media features and to analyse the traffic.

  • Store and/or access information on your device

    Cookies, device identifiers or other information can be stored or accessed on your device for the purposes indicated above.

  • Personalised ads and content, ad and content measurement, audience insights, and products development

    Ads and content can be personalised based on a profile. More data can be added to better personalise ads and content. Ad and content performance can be measured. Insights about the audience who saw the ads and content can be derived. Such data can be used to develop or improve user’s experience, systems and software.

By clicking ‘I Agree’ you will allow the use of indicated cookies, device identifiers, web beacons or other similar technologies. Your settings can be changed in the browser on your device.

For certain purposes, legitimate interests may be relied on, rather than consent. You can read more about this in our Privacy and Cookie Policy.